Time,TemperatureF,DewpointF,PressureIn,WindDirection,WindDirectionDegrees,WindSpeedMPH,WindSpeedGustMPH,Humidity,HourlyPrecipIn,Conditions,Clouds,dailyrainin,SolarRadiationWatts/m^2,SoftwareType,DateUTC
2013-02-11 00:00:00,41.1,24.4,29.92,SSE,150,4.0,9.0,51,0.00,,OVC140,0.23,0.00,VWS V14.01,2013-02-11 05:00:00,
2013-02-11 00:05:00,41.1,22.9,29.90,SE,130,9.0,18.4,48,0.00,RA,OVC,0.00,0.0,WeatherDisplay:10.37,2013-02-11 05:05:00,
2013-02-11 00:10:00,40.5,24.7,29.93,ESE,115,8.0,8.0,53,0.00,,OVC140,0.00,0.00,VWS V14.01,2013-02-11 05:10:00,
2013-02-11 00:15:00,40.7,23.0,29.91,SSE,153,10.5,14.0,49,0.00,OVC,,0.00,0.0,WeatherDisplay:10.37,2013-02-11 05:15:00,
2013-02-11 00:20:00,40.1,24.4,29.92,SE,141,6.0,9.0,53,0.00,,OVC140,0.00,0.00,VWS V14.01,2013-02-11 05:20:00,
2013-02-11 00:25:00,40.0,24.3,29.91,SE,138,10.0,12.0,53,0.00,,OVC140,0.00,0.00,VWS V14.01,2013-02-11 05:25:00,
2013-02-11 00:30:00,39.8,24.5,29.91,ESE,119,10.0,11.0,54,0.00,,OVC140,0.00,0.00,VWS V14.01,2013-02-11 05:30:00,
2013-02-11 00:35:00,39.6,24.3,29.91,ESE,115,11.0,13.0,54,0.00,,OVC140,0.00,0.00,VWS V14.01,2013-02-11 05:35:00,
2013-02-11 00:40:00,39.7,22.6,29.89,SSE,153,9.0,17.3,50,0.00,-RA,OVC,0.00,0.0,WeatherDisplay:10.37,2013-02-11 05:40:00,
2013-02-11 00:45:00,39.3,24.1,29.90,SSW,209,6.0,10.0,54,0.00,,OVC100,0.00,0.00,VWS V14.01,2013-02-11 05:45:00,
2013-02-11 00:50:00,39.3,24.1,29.90,ESE,109,8.0,8.0,54,0.00,,OVC100,0.00,0.00,VWS V14.01,2013-02-11 05:50:00,
2013-02-11 00:55:00,39.5,22.8,29.87,SSE,149,6.3,19.6,51,0.00,OVC,,0.00,0.0,WeatherDisplay:10.37,2013-02-11 05:55:00,
2013-02-11 01:00:00,39.2,23.5,29.88,ESE,109,5.0,11.0,53,0.00,,OVC100,0.00,0.00,VWS V14.01,2013-02-11 06:00:00,
2013-02-11 01:05:00,39.3,24.1,29.89,ESE,110,9.0,12.0,54,0.00,,OVC100,0.00,0.00,VWS V14.01,2013-02-11 06:05:00,
2013-02-11 01:10:00,39.3,24.1,29.88,SE,146,3.0,12.0,54,0.00,,OVC100,0.00,0.00,VWS V14.01,2013-02-11 06:10:00,
2013-02-11 01:15:00,39.5,22.4,29.86,SSE,149,9.4,16.1,50,0.00,OVC,,0.00,0.0,WeatherDisplay:10.37,2013-02-11 06:15:00,
2013-02-11 01:20:00,39.3,24.1,29.87,South,175,8.0,9.0,54,0.00,,OVC100,0.00,0.00,VWS V14.01,2013-02-11 06:20:00,
2013-02-11 01:25:00,39.5,22.8,29.85,SSE,147,11.4,18.0,51,0.00,OVC,,0.00,0.0,WeatherDisplay:10.37,2013-02-11 06:25:00,
2013-02-11 01:30:00,39.3,24.1,29.86,South,178,5.0,10.0,54,0.00,,OVC100,0.00,0.00,VWS V14.01,2013-02-11 06:30:00,
2013-02-11 01:35:00,39.3,24.1,29.86,SE,132,9.0,9.0,54,0.00,,OVC100,0.00,0.00,VWS V14.01,2013-02-11 06:35:00,
2013-02-11 01:40:00,39.5,22.8,29.84,SSE,153,8.2,18.4,51,0.00,OVC,,0.00,0.0,WeatherDisplay:10.37,2013-02-11 06:40:00,
2013-02-11 01:45:00,39.2,24.8,29.85,South,178,3.0,6.0,56,0.00,,OVC090,0.00,0.00,VWS V14.01,2013-02-11 06:45:00,
2013-02-11 01:50:00,39.3,24.9,29.85,SSE,155,7.0,7.0,56,0.00,,OVC090,0.00,0.00,VWS V14.01,2013-02-11 06:50:00,
2013-02-11 01:55:00,39.5,23.3,29.83,South,169,3.7,11.5,52,0.00,OVC,,0.00,0.0,WeatherDisplay:10.37,2013-02-11 06:55:00,
2013-02-11 02:00:00,39.5,23.3,29.83,South,169,6.0,11.5,52,0.00,OVC,,0.00,0.0,WeatherDisplay:10.37,2013-02-11 07:00:00,
2013-02-11 02:05:00,39.7,24.9,29.84,South,181,5.0,8.0,55,0.00,,OVC090,0.00,0.00,VWS V14.01,2013-02-11 07:05:00,
2013-02-11 02:10:00,39.8,23.6,29.83,South,176,7.4,11.0,52,0.00,OVC,,0.00,0.0,WeatherDisplay:10.37,2013-02-11 07:10:00,
2013-02-11 02:15:00,40.2,24.9,29.85,South,173,3.0,6.0,54,0.00,,OVC090,0.00,0.00,VWS V14.01,2013-02-11 07:15:00,
2013-02-11 02:20:00,40.2,24.0,29.83,SSE,164,5.5,10.0,52,0.00,OVC,,0.00,0.0,WeatherDisplay:10.37,2013-02-11 07:20:00,
2013-02-11 02:25:00,40.5,25.2,29.84,SSE,168,5.0,7.0,54,0.00,,OVC090,0.00,0.00,VWS V14.01,2013-02-11 07:25:00,
2013-02-11 02:30:00,40.8,25.5,29.84,SE,136,5.0,6.0,54,0.00,,OVC090,0.00,0.00,VWS V14.01,2013-02-11 07:30:00,
2013-02-11 02:35:00,40.8,24.5,29.83,South,171,5.4,10.4,52,0.00,OVC,,0.00,0.0,WeatherDisplay:10.37,2013-02-11 07:35:00,
2013-02-11 02:40:00,40.9,24.6,29.82,SSE,162,4.7,11.5,52,0.00,OVC,,0.00,0.0,WeatherDisplay:10.37,2013-02-11 07:40:00,
2013-02-11 02:45:00,40.4,27.2,29.83,SSE,149,3.0,6.0,59,0.00,,OVC090,0.00,0.00,VWS V14.01,2013-02-11 07:45:00,
2013-02-11 02:50:00,39.8,28.2,29.83,South,178,8.0,8.0,63,0.01,,OVC090,0.01,0.00,VWS V14.01,2013-02-11 07:50:00,
2013-02-11 02:55:00,39.3,28.9,29.83,SSE,160,3.0,5.0,66,0.01,,OVC090,0.01,0.00,VWS V14.01,2013-02-11 07:55:00,
2013-02-11 03:00:00,38.8,28.8,29.83,SE,138,7.0,7.0,67,0.01,,OVC090,0.01,0.00,VWS V14.01,2013-02-11 08:00:00,
2013-02-11 03:05:00,39.2,27.7,29.81,SSE,150,3.9,10.4,63,0.01,OVC,,0.01,0.0,WeatherDisplay:10.37,2013-02-11 08:05:00,
2013-02-11 03:10:00,38.5,28.5,29.82,ESE,102,3.0,5.0,67,0.02,,OVC090,0.02,0.00,VWS V14.01,2013-02-11 08:10:00,
2013-02-11 03:15:00,38.6,27.1,29.80,SSE,161,3.0,10.4,63,0.01,OVC,,0.01,0.0,WeatherDisplay:10.37,2013-02-11 08:15:00,
2013-02-11 03:20:00,38.2,28.2,29.82,SSW,197,5.0,7.0,67,0.02,,OVC090,0.02,0.00,VWS V14.01,2013-02-11 08:20:00,
2013-02-11 03:25:00,38.4,26.5,29.80,SSE,153,3.9,11.5,62,0.01,OVC,,0.01,0.0,WeatherDisplay:10.37,2013-02-11 08:25:00,
2013-02-11 03:30:00,38.5,26.6,29.79,South,174,5.1,9.2,62,0.01,OVC,,0.01,0.0,WeatherDisplay:10.37,2013-02-11 08:30:00,
2013-02-11 03:35:00,38.6,28.6,29.81,WSW,244,2.0,5.0,67,0.02,,OVC090,0.02,0.00,VWS V14.01,2013-02-11 08:35:00,
2013-02-11 03:40:00,38.6,27.8,29.79,SSW,203,3.1,10.4,65,0.02,-RA,OVC,0.02,0.0,WeatherDisplay:10.37,2013-02-11 08:40:00,
2013-02-11 03:45:00,38.7,29.4,29.81,South,176,2.0,2.0,69,0.02,,-RA,0.02,0.00,VWS V14.01,2013-02-11 08:45:00,
2013-02-11 03:50:00,38.5,29.9,29.81,SSE,168,3.0,4.0,71,0.02,,-RA,0.03,0.00,VWS V14.01,2013-02-11 08:50:00,
2013-02-11 03:55:00,38.4,30.2,29.81,SSW,209,3.0,6.0,72,0.02,,-RA,0.03,0.00,VWS V14.01,2013-02-11 08:55:00,
2013-02-11 04:00:00,38.6,29.3,29.79,SSW,194,2.2,5.0,69,0.01,-RA,OVC,0.02,0.0,WeatherDisplay:10.37,2013-02-11 09:00:00,
2013-02-11 04:05:00,37.9,31.0,29.80,SSE,161,3.0,7.0,76,0.01,,-RA,0.03,0.00,VWS V14.01,2013-02-11 09:05:00,
2013-02-11 04:10:00,38.3,29.7,29.78,South,174,4.2,10.4,71,0.01,-RA,OVC,0.02,0.0,WeatherDisplay:10.37,2013-02-11 09:10:00,
2013-02-11 04:15:00,38.0,31.4,29.80,South,180,1.0,4.0,77,0.01,,-RA,0.03,0.00,VWS V14.01,2013-02-11 09:15:00,
2013-02-11 04:20:00,38.1,30.5,29.78,South,188,1.9,6.9,74,0.01,-RA,OVC,0.02,0.0,WeatherDisplay:10.37,2013-02-11 09:20:00,
2013-02-11 04:24:00,37.7,32.1,29.79,SSE,157,4.0,5.0,80,0.01,,-RA,0.03,0.00,VWS V14.01,2013-02-11 09:24:00,
2013-02-11 04:29:00,37.9,31.0,29.76,SSE,163,6.1,9.2,76,0.02,-RA,OVC,0.03,0.0,WeatherDisplay:10.37,2013-02-11 09:29:00,
2013-02-11 04:34:00,37.7,32.7,29.78,South,169,4.0,5.0,82,0.01,,-RA,0.03,0.00,VWS V14.01,2013-02-11 09:34:00,
2013-02-11 04:39:00,37.7,33.0,29.78,SE,136,3.0,4.0,83,0.01,,-RA,0.03,0.00,VWS V14.01,2013-02-11 09:39:00,
2013-02-11 04:44:00,37.9,32.0,29.75,SSE,168,4.5,7.0,79,0.01,-RA,OVC,0.03,0.0,WeatherDisplay:10.37,2013-02-11 09:44:00,
2013-02-11 04:49:00,37.9,33.8,29.77,SSW,192,3.0,3.0,85,0.00,,-RA,0.03,0.00,VWS V14.01,2013-02-11 09:49:00,
2013-02-11 04:54:00,38.0,33.9,29.77,SSE,155,2.0,6.0,85,0.00,,-RA,0.03,0.00,VWS V14.01,2013-02-11 09:54:00,
2013-02-11 04:59:00,38.2,34.1,29.77,SSE,165,7.0,7.0,85,0.00,,-RA,0.03,0.00,VWS V14.01,2013-02-11 09:59:00,
2013-02-11 05:04:00,38.2,32.9,29.75,South,183,1.3,10.4,81,0.01,-RA,OVC,0.03,0.0,WeatherDisplay:10.37,2013-02-11 10:04:00,
2013-02-11 05:09:00,38.8,35.0,29.77,SW,219,7.0,7.0,86,0.00,,-RA,0.03,0.00,VWS V14.01,2013-02-11 10:09:00,
2013-02-11 05:14:00,39.2,35.4,29.77,SSE,147,1.0,5.0,86,0.01,,-RA,0.04,0.00,VWS V14.01,2013-02-11 10:14:00,
2013-02-11 05:19:00,39.0,34.0,29.75,SSW,196,4.0,11.5,82,0.02,-RA,OVC,0.04,0.0,WeatherDisplay:10.37,2013-02-11 10:19:00,
2013-02-11 05:24:00,38.6,35.1,29.76,South,182,7.0,7.0,87,0.02,,-RA,0.05,0.00,VWS V14.01,2013-02-11 10:24:00,
2013-02-11 05:29:00,38.5,35.3,29.76,SSE,166,2.0,4.0,88,0.03,,-RA,0.06,0.00,VWS V14.01,2013-02-11 10:29:00,
2013-02-11 05:34:00,38.7,34.3,29.74,SSE,151,4.1,12.7,84,0.02,-RA,OVC,0.05,0.0,WeatherDisplay:10.37,2013-02-11 10:34:00,
2013-02-11 05:39:00,38.3,35.6,29.76,SSE,157,4.0,4.0,90,0.03,,,0.06,0.00,VWS V14.01,2013-02-11 10:39:00,
2013-02-11 05:44:00,38.3,35.6,29.76,South,173,3.0,4.0,90,0.03,,,0.06,0.00,VWS V14.01,2013-02-11 10:44:00,
2013-02-11 05:49:00,38.5,34.4,29.73,SSE,165,4.6,11.5,85,0.03,-SN,OVC,0.06,0.0,WeatherDisplay:10.37,2013-02-11 10:49:00,
2013-02-11 05:54:00,38.4,35.7,29.75,South,179,7.0,7.0,90,0.04,,,0.07,0.00,VWS V14.01,2013-02-11 10:54:00,
2013-02-11 05:59:00,38.5,35.8,29.74,South,169,6.0,6.0,90,0.04,,RA,0.07,0.00,VWS V14.01,2013-02-11 10:59:00,
2013-02-11 06:04:00,38.7,36.0,29.74,South,169,3.0,3.0,90,0.04,,RA,0.07,0.00,VWS V14.01,2013-02-11 11:04:00,
2013-02-11 06:09:00,38.8,36.1,29.73,SE,134,3.0,3.0,90,0.04,,RA,0.07,0.00,VWS V14.01,2013-02-11 11:09:00,
2013-02-11 06:14:00,38.8,36.1,29.73,SE,146,5.0,5.0,90,0.03,,RA,0.07,0.00,VWS V14.01,2013-02-11 11:14:00,
2013-02-11 06:19:00,39.1,35.3,29.71,South,180,6.1,19.6,86,0.02,OVC,,0.06,0.0,WeatherDisplay:10.37,2013-02-11 11:19:00,
2013-02-11 06:24:00,39.4,36.7,29.72,SSW,195,3.0,3.0,90,0.02,,RA,0.07,0.00,VWS V14.01,2013-02-11 11:24:00,
2013-02-11 06:29:00,39.5,35.7,29.71,SSE,162,8.9,15.0,86,0.01,-RA,OVC,0.06,0.0,WeatherDisplay:10.37,2013-02-11 11:29:00,
2013-02-11 06:34:00,39.7,37.0,29.72,South,170,5.0,5.0,90,0.01,,RA,0.07,0.00,VWS V14.01,2013-02-11 11:34:00,
2013-02-11 06:39:00,39.8,35.7,29.70,South,170,8.9,16.1,85,0.01,-RA,OVC,0.06,0.0,WeatherDisplay:10.37,2013-02-11 11:39:00,
2013-02-11 06:44:00,40.0,37.0,29.72,SSW,202,5.0,5.0,89,0.01,,-RA,0.07,0.00,VWS V14.01,2013-02-11 11:44:00,
2013-02-11 06:49:00,40.1,36.0,29.70,SSW,192,12.5,20.0,85,0.00,-RA,OVC,0.06,0.0,WeatherDisplay:10.37,2013-02-11 11:49:00,
2013-02-11 06:54:00,40.4,37.1,29.72,South,171,6.0,7.0,88,0.00,,-RA,0.07,0.00,VWS V14.01,2013-02-11 11:54:00,
2013-02-11 06:59:00,40.7,36.2,29.70,SSE,159,9.4,22.0,84,0.00,-RA,OVC,0.06,0.0,WeatherDisplay:10.37,2013-02-11 11:59:00,
2013-02-11 07:04:00,40.9,37.6,29.71,SSE,158,8.0,10.0,88,0.00,,-RA,0.07,0.00,VWS V14.01,2013-02-11 12:04:00,
2013-02-11 07:09:00,41.2,36.4,29.69,South,177,6.6,21.9,83,0.00,OVC,,0.06,0.0,WeatherDisplay:10.37,2013-02-11 12:09:00,
2013-02-11 07:14:00,41.3,37.7,29.72,SSW,203,3.0,6.0,87,0.00,,,0.07,0.00,VWS V14.01,2013-02-11 12:14:00,
2013-02-11 07:19:00,41.3,37.4,29.72,SSE,149,9.0,9.0,86,0.00,,-RA,0.07,0.00,VWS V14.01,2013-02-11 12:19:00,
2013-02-11 07:24:00,41.5,37.9,29.72,South,182,7.0,7.0,87,0.00,,-RA,0.07,0.00,VWS V14.01,2013-02-11 12:24:00,
2013-02-11 07:29:00,41.6,38.0,29.72,South,188,4.0,4.0,87,0.00,,-RA,0.07,0.00,VWS V14.01,2013-02-11 12:29:00,
2013-02-11 07:34:00,41.7,38.1,29.72,SSW,192,4.0,17.0,87,0.01,,-RA,0.08,0.00,VWS V14.01,2013-02-11 12:34:00,
2013-02-11 07:39:00,42.0,37.2,29.70,SW,217,5.5,12.7,83,0.00,OVC,,0.06,0.0,WeatherDisplay:10.37,2013-02-11 12:39:00,
2013-02-11 07:44:00,41.9,38.3,29.71,SW,221,7.0,7.0,87,0.01,,-RA,0.08,5.00,VWS V14.01,2013-02-11 12:44:00,
2013-02-11 07:49:00,42.2,38.6,29.70,SSE,152,7.0,7.0,87,0.01,,-RA,0.08,12.00,VWS V14.01,2013-02-11 12:49:00,
2013-02-11 07:54:00,42.4,37.6,29.68,SSW,203,7.4,12.0,83,0.00,OVC,,0.06,32.0,WeatherDisplay:10.37,2013-02-11 12:54:00,
2013-02-11 07:59:00,42.3,38.7,29.70,South,181,11.0,11.0,87,0.01,,OVC037,0.08,39.00,VWS V14.01,2013-02-11 12:59:00,
2013-02-11 08:04:00,42.4,38.8,29.70,SSW,198,7.0,7.0,87,0.01,,OVC037,0.08,44.00,VWS V14.01,2013-02-11 13:04:00,
2013-02-11 08:09:00,42.6,37.8,29.68,SSE,150,6.9,11.5,83,0.00,OVC,,0.06,49.0,WeatherDisplay:10.37,2013-02-11 13:09:00,
2013-02-11 08:14:00,42.8,39.2,29.70,South,180,3.0,4.0,87,0.01,,OVC037,0.08,46.00,VWS V14.01,2013-02-11 13:14:00,
2013-02-11 08:19:00,42.9,38.1,29.68,SSW,200,7.3,15.0,83,0.00,OVC,,0.06,39.0,WeatherDisplay:10.37,2013-02-11 13:19:00,
2013-02-11 08:24:00,43.1,38.3,29.68,South,186,6.1,14.0,83,0.00,OVC,,0.06,62.0,WeatherDisplay:10.37,2013-02-11 13:24:00,
2013-02-11 08:29:00,43.2,39.3,29.69,SW,220,4.0,8.0,86,0.01,,OVC037,0.08,25.00,VWS V14.01,2013-02-11 13:29:00,
2013-02-11 08:34:00,43.3,38.5,29.68,SSW,205,3.3,11.5,83,0.00,OVC,,0.06,21.0,WeatherDisplay:10.37,2013-02-11 13:34:00,
2013-02-11 08:39:00,43.3,39.7,29.69,SSW,211,6.0,7.0,87,0.00,,OVC032,0.08,39.00,VWS V14.01,2013-02-11 13:39:00,
2013-02-11 08:44:00,43.6,40.0,29.69,SSW,204,3.0,3.0,87,0.00,,OVC032,0.08,44.00,VWS V14.01,2013-02-11 13:44:00,
2013-02-11 08:49:00,43.9,40.0,29.69,SW,217,7.0,7.0,86,0.00,,OVC032,0.08,54.00,VWS V14.01,2013-02-11 13:49:00,
2013-02-11 08:54:00,44.1,39.3,29.67,South,171,7.9,15.0,83,0.00,OVC,,0.06,128.0,WeatherDisplay:10.37,2013-02-11 13:54:00,
2013-02-11 08:59:00,44.5,39.3,29.67,South,191,6.6,15.0,82,0.00,OVC,,0.06,278.0,WeatherDisplay:10.37,2013-02-11 13:59:00,
2013-02-11 09:04:00,44.9,39.4,29.67,SSW,192,8.6,14.0,81,0.00,OVC,,0.06,178.0,WeatherDisplay:10.37,2013-02-11 14:04:00,
2013-02-11 09:09:00,45.2,40.7,29.68,SW,219,8.0,10.0,84,0.00,,OVC032,0.08,83.00,VWS V14.01,2013-02-11 14:09:00,
2013-02-11 09:14:00,45.4,40.5,29.67,South,186,7.0,10.0,83,0.00,,OVC032,0.08,128.00,VWS V14.01,2013-02-11 14:14:00,
2013-02-11 09:19:00,45.8,40.9,29.67,SW,229,5.0,9.0,83,0.00,,OVC032,0.08,98.00,VWS V14.01,2013-02-11 14:19:00,
2013-02-11 09:24:00,45.9,40.1,29.65,SW,217,6.5,9.2,80,0.00,BKN,OVC,0.06,51.0,WeatherDisplay:10.37,2013-02-11 14:24:00,
2013-02-11 09:29:00,45.9,41.0,29.66,South,182,7.0,14.0,83,0.00,,OVC032,0.08,334.00,VWS V14.01,2013-02-11 14:29:00,
2013-02-11 09:34:00,46.3,40.5,29.64,SSW,207,8.0,13.0,80,0.00,BKN,OVC,0.06,320.0,WeatherDisplay:10.37,2013-02-11 14:34:00,
2013-02-11 09:39:00,47.3,41.5,29.65,SSW,196,10.0,10.0,80,0.00,,BKN200,0.08,381.00,VWS V14.01,2013-02-11 14:39:00,
2013-02-11 09:44:00,47.9,42.0,29.65,SSW,198,6.0,8.0,80,0.00,,BKN200,0.08,457.00,VWS V14.01,2013-02-11 14:44:00,
2013-02-11 09:49:00,48.3,42.1,29.65,SSW,202,4.0,8.0,79,0.00,,BKN200,0.08,271.00,VWS V14.01,2013-02-11 14:49:00,
2013-02-11 09:54:00,48.6,42.1,29.65,SSE,161,7.0,13.0,78,0.00,,BKN200,0.08,496.00,VWS V14.01,2013-02-11 14:54:00,
2013-02-11 09:59:00,48.5,42.3,29.65,South,177,5.0,9.0,79,0.00,,BKN200,0.08,445.00,VWS V14.01,2013-02-11 14:59:00,
2013-02-11 10:04:00,48.6,42.1,29.65,SW,225,4.0,11.0,78,0.00,,BKN200,0.08,476.00,VWS V14.01,2013-02-11 15:04:00,
2013-02-11 10:09:00,48.3,41.8,29.65,South,181,7.0,13.0,78,0.00,,BKN200,0.08,292.00,VWS V14.01,2013-02-11 15:09:00,
2013-02-11 10:14:00,48.9,41.3,29.63,SW,217,10.4,17.3,75,0.00,BKN,OVC,0.06,422.0,WeatherDisplay:10.37,2013-02-11 15:14:00,
2013-02-11 10:19:00,49.1,42.2,29.64,South,183,4.0,10.0,77,0.00,,BKN200,0.08,471.00,VWS V14.01,2013-02-11 15:19:00,
2013-02-11 10:24:00,49.4,41.1,29.62,SW,224,7.5,20.7,73,0.00,BKN,OVC,0.06,482.0,WeatherDisplay:10.37,2013-02-11 15:24:00,
2013-02-11 10:29:00,49.7,41.8,29.64,SW,223,6.0,17.0,74,0.00,,BKN200,0.08,91.00,VWS V14.01,2013-02-11 15:29:00,
2013-02-11 10:34:00,48.6,41.0,29.64,SSE,164,10.0,10.0,75,0.00,,SCT200,0.08,98.00,VWS V14.01,2013-02-11 15:34:00,
2013-02-11 10:39:00,49.5,40.8,29.62,SSW,210,10.0,19.6,72,0.00,SCT,OVC,0.06,480.0,WeatherDisplay:10.37,2013-02-11 15:39:00,
2013-02-11 10:44:00,49.8,41.9,29.63,SSW,201,13.0,20.0,74,0.00,,SCT200,0.08,555.00,VWS V14.01,2013-02-11 15:44:00,
2013-02-11 10:49:00,50.1,40.7,29.61,SW,217,6.5,21.9,70,0.00,SCT,OVC,0.06,241.0,WeatherDisplay:10.37,2013-02-11 15:49:00,
2013-02-11 10:54:00,49.8,41.5,29.63,SSW,212,10.0,10.0,73,0.00,,SCT200,0.08,179.00,VWS V14.01,2013-02-11 15:54:00,
2013-02-11 10:59:00,49.1,41.2,29.62,SSW,211,7.0,16.0,74,0.00,,SCT200,0.08,158.00,VWS V14.01,2013-02-11 15:59:00,
2013-02-11 11:04:00,48.6,41.0,29.62,SSW,196,4.0,10.0,75,0.00,,SCT200,0.08,223.00,VWS V14.01,2013-02-11 16:04:00,
2013-02-11 11:09:00,50.0,40.6,29.60,SSW,196,6.1,15.0,70,0.00,SCT,OVC,0.06,522.0,WeatherDisplay:10.37,2013-02-11 16:09:00,
2013-02-11 11:14:00,49.7,41.4,29.61,SSW,205,5.0,7.0,73,0.00,,SCT200,0.08,552.00,VWS V14.01,2013-02-11 16:14:00,
2013-02-11 11:19:00,50.5,40.7,29.59,SW,217,11.7,16.1,69,0.00,SCT,OVC,0.06,622.0,WeatherDisplay:10.37,2013-02-11 16:19:00,
2013-02-11 11:24:00,50.8,40.6,29.58,South,190,11.0,22.0,68,0.00,SCT,OVC,0.06,543.0,WeatherDisplay:10.37,2013-02-11 16:24:00,
2013-02-11 11:29:00,50.9,40.7,29.58,SW,219,6.3,21.9,68,0.00,SCT,OVC,0.06,582.0,WeatherDisplay:10.37,2013-02-11 16:29:00,
2013-02-11 11:34:00,50.5,41.8,29.59,West,267,5.0,7.0,72,0.00,,SCT200,0.08,221.00,VWS V14.01,2013-02-11 16:34:00,
2013-02-11 11:39:00,51.1,40.9,29.58,SW,236,9.8,23.0,68,0.00,SCT,OVC,0.06,533.0,WeatherDisplay:10.37,2013-02-11 16:39:00,
2013-02-11 11:44:00,51.1,42.0,29.59,SSW,209,3.0,6.0,71,0.00,,SCT120,0.08,589.00,VWS V14.01,2013-02-11 16:44:00,
2013-02-11 11:49:00,51.2,41.8,29.58,SSE,162,5.0,6.0,70,0.00,,SCT120,0.08,596.00,VWS V14.01,2013-02-11 16:49:00,
2013-02-11 11:54:00,51.9,41.3,29.56,SW,219,15.1,27.0,67,0.00,SCT,OVC,0.06,536.0,WeatherDisplay:10.37,2013-02-11 16:54:00,
2013-02-11 11:59:00,51.9,41.3,29.56,WSW,242,8.4,19.6,67,0.00,SCT,OVC,0.06,538.0,WeatherDisplay:10.37,2013-02-11 16:59:00,
2013-02-11 12:04:00,51.5,42.0,29.57,SSW,213,5.0,9.0,70,0.00,,SCT120,0.08,601.00,VWS V14.01,2013-02-11 17:04:00,
2013-02-11 12:09:00,51.5,42.0,29.57,SW,217,4.0,8.0,70,0.00,,SCT120,0.08,624.00,VWS V14.01,2013-02-11 17:09:00,
2013-02-11 12:14:00,52.0,42.2,29.56,SW,215,18.0,18.0,69,0.00,,SCT120,0.08,650.00,VWS V14.01,2013-02-11 17:14:00,
2013-02-11 12:19:00,52.5,41.1,29.54,SW,228,8.9,17.0,65,0.00,SCT,OVC,0.06,617.0,WeatherDisplay:10.37,2013-02-11 17:19:00,
2013-02-11 12:24:00,52.3,42.1,29.56,SW,225,7.0,7.0,68,0.00,,SCT120,0.08,686.00,VWS V14.01,2013-02-11 17:24:00,
2013-02-11 12:29:00,52.5,41.1,29.54,SW,234,6.5,12.7,65,0.00,BKN,OVC,0.06,612.0,WeatherDisplay:10.37,2013-02-11 17:29:00,
2013-02-11 12:34:00,50.9,41.1,29.56,West,264,6.0,9.0,69,0.00,,BKN110,0.08,155.00,VWS V14.01,2013-02-11 17:34:00,
2013-02-11 12:39:00,51.3,39.5,29.58,WSW,249,32.8,43.0,64,0.01,RA,OVC,0.07,54.0,WeatherDisplay:10.37,2013-02-11 17:39:00,
2013-02-11 12:44:00,46.3,37.8,29.58,SW,230,18.9,31.0,72,0.02,RA,OVC,0.08,74.0,WeatherDisplay:10.37,2013-02-11 17:44:00,
2013-02-11 12:49:00,42.8,37.4,29.61,West,270,7.0,10.0,81,0.02,,BKN110,0.10,67.00,VWS V14.01,2013-02-11 17:49:00,
2013-02-11 12:54:00,41.9,35.5,29.59,WSW,246,15.4,23.0,78,0.03,RA,OVC,0.09,49.0,WeatherDisplay:10.37,2013-02-11 17:54:00,
2013-02-11 12:59:00,39.9,35.8,29.60,West,270,6.0,10.0,85,0.02,,-RA,0.10,67.00,VWS V14.01,2013-02-11 17:59:00,
2013-02-11 13:04:00,39.2,35.7,29.61,West,267,4.0,9.0,87,0.02,,-RA,0.10,46.00,VWS V14.01,2013-02-11 18:04:00,
2013-02-11 13:09:00,39.3,34.3,29.60,WSW,258,14.5,24.2,82,0.03,-RA,OVC,0.09,183.0,WeatherDisplay:10.37,2013-02-11 18:09:00,
2013-02-11 13:14:00,39.0,35.5,29.61,West,268,9.0,11.0,87,0.02,,-RA,0.10,125.00,VWS V14.01,2013-02-11 18:14:00,
2013-02-11 13:19:00,39.3,35.8,29.61,West,260,6.0,6.0,87,0.02,,-RA,0.10,153.00,VWS V14.01,2013-02-11 18:19:00,
2013-02-11 13:24:00,39.6,35.8,29.61,WSW,248,6.0,9.0,86,0.02,,-RA,0.10,234.00,VWS V14.01,2013-02-11 18:24:00,
2013-02-11 13:29:00,39.7,35.3,29.61,West,272,12.0,12.0,84,0.02,,-RA,0.10,142.00,VWS V14.01,2013-02-11 18:29:00,
2013-02-11 13:34:00,39.6,33.9,29.60,WSW,250,10.8,20.0,80,0.03,-RA,OVC,0.09,114.0,WeatherDisplay:10.37,2013-02-11 18:34:00,
2013-02-11 13:39:00,39.4,34.7,29.62,West,272,5.0,9.0,83,0.02,,-RA,0.10,46.00,VWS V14.01,2013-02-11 18:39:00,
2013-02-11 13:44:00,39.4,33.1,29.60,West,259,14.8,24.0,78,0.01,-RA,OVC,0.09,65.0,WeatherDisplay:10.37,2013-02-11 18:44:00,
2013-02-11 13:49:00,39.1,33.8,29.62,SW,232,3.0,3.0,81,0.00,,-RA,0.10,97.00,VWS V14.01,2013-02-11 18:49:00,
2013-02-11 13:54:00,39.0,33.7,29.62,WSW,250,3.0,8.0,81,0.00,,-RA,0.10,100.00,VWS V14.01,2013-02-11 18:54:00,
2013-02-11 13:59:00,39.1,32.2,29.60,WSW,249,15.2,24.2,76,0.00,-RA,OVC,0.09,102.0,WeatherDisplay:10.37,2013-02-11 18:59:00,
2013-02-11 14:04:00,38.8,33.2,29.62,West,265,9.0,13.0,80,0.00,,-RA,0.10,86.00,VWS V14.01,2013-02-11 19:04:00,
2013-02-11 14:09:00,38.7,33.1,29.62,WSW,251,6.0,9.0,80,0.00,,-RA,0.10,105.00,VWS V14.01,2013-02-11 19:09:00,
2013-02-11 14:14:00,38.7,31.5,29.61,West,266,14.0,24.2,75,0.00,-RA,OVC,0.09,102.0,WeatherDisplay:10.37,2013-02-11 19:14:00,
2013-02-11 14:19:00,38.6,31.4,29.61,WSW,255,16.3,26.5,75,0.00,-RA,OVC,0.09,81.0,WeatherDisplay:10.37,2013-02-11 19:19:00,
2013-02-11 14:24:00,38.3,32.7,29.63,West,259,7.0,7.0,80,0.00,,-RA,0.10,91.00,VWS V14.01,2013-02-11 19:24:00,
2013-02-11 14:29:00,38.3,31.4,29.61,West,264,17.1,34.5,76,0.00,OVC,,0.09,76.0,WeatherDisplay:10.37,2013-02-11 19:29:00,
2013-02-11 14:34:00,38.0,32.7,29.62,West,259,9.0,14.0,81,0.00,,-RA,0.10,69.00,VWS V14.01,2013-02-11 19:34:00,
2013-02-11 14:39:00,37.9,32.6,29.63,WSW,254,11.0,16.0,81,0.00,,-RA,0.10,62.00,VWS V14.01,2013-02-11 19:39:00,
2013-02-11 14:44:00,37.8,30.9,29.62,WSW,254,16.3,26.5,76,0.00,OVC,,0.09,84.0,WeatherDisplay:10.37,2013-02-11 19:44:00,
2013-02-11 14:49:00,37.5,32.2,29.63,WSW,257,9.0,9.0,81,0.00,,OVC065,0.10,42.00,VWS V14.01,2013-02-11 19:49:00,
2013-02-11 14:54:00,37.4,31.8,29.63,West,261,9.0,10.0,80,0.00,,OVC065,0.10,40.00,VWS V14.01,2013-02-11 19:54:00,
2013-02-11 14:59:00,37.3,30.1,29.62,WSW,251,18.0,27.6,75,0.00,OVC,,0.09,37.0,WeatherDisplay:10.37,2013-02-11 19:59:00,
2013-02-11 15:04:00,37.2,30.0,29.62,WSW,244,16.8,33.4,75,0.00,OVC,,0.09,98.0,WeatherDisplay:10.37,2013-02-11 20:04:00,
2013-02-11 15:09:00,37.0,31.4,29.64,WSW,253,7.0,12.0,80,0.00,,OVC065,0.10,77.00,VWS V14.01,2013-02-11 20:09:00,
2013-02-11 15:14:00,37.0,29.8,29.62,WSW,252,17.2,33.4,75,0.00,OVC,,0.09,83.0,WeatherDisplay:10.37,2013-02-11 20:14:00,
2013-02-11 15:19:00,36.8,31.2,29.65,West,259,8.0,10.0,80,0.00,,OVC065,0.10,46.00,VWS V14.01,2013-02-11 20:19:00,
2013-02-11 15:24:00,36.6,29.4,29.64,West,271,19.6,30.0,75,0.00,OVC,,0.09,47.0,WeatherDisplay:10.37,2013-02-11 20:24:00,
2013-02-11 15:29:00,36.3,30.7,29.65,WSW,247,11.0,11.0,80,0.00,,OVC065,0.10,47.00,VWS V14.01,2013-02-11 20:29:00,
2013-02-11 15:34:00,36.1,28.9,29.64,WSW,255,16.2,26.5,75,0.00,OVC,,0.09,39.0,WeatherDisplay:10.37,2013-02-11 20:34:00,
2013-02-11 15:39:00,35.8,30.2,29.66,West,263,10.0,10.0,80,0.00,,OVC060,0.10,28.00,VWS V14.01,2013-02-11 20:39:00,
2013-02-11 15:44:00,35.7,30.5,29.66,WNW,290,9.0,9.0,81,0.00,,OVC060,0.10,28.00,VWS V14.01,2013-02-11 20:44:00,
2013-02-11 15:49:00,35.6,28.8,29.65,West,259,18.5,32.2,76,0.00,OVC,,0.09,23.0,WeatherDisplay:10.37,2013-02-11 20:49:00,
2013-02-11 15:54:00,35.5,28.7,29.65,WSW,247,23.1,31.1,76,0.00,OVC,,0.09,25.0,WeatherDisplay:10.37,2013-02-11 20:54:00,
2013-02-11 15:59:00,35.4,29.9,29.67,West,266,10.0,10.0,80,0.00,,OVC060,0.10,18.00,VWS V14.01,2013-02-11 20:59:00,
2013-02-11 16:04:00,35.4,28.3,29.65,WSW,239,11.4,31.1,75,0.00,OVC,,0.09,32.0,WeatherDisplay:10.37,2013-02-11 21:04:00,
2013-02-11 16:09:00,35.3,29.8,29.67,WSW,244,5.0,9.0,80,0.00,,OVC060,0.10,23.00,VWS V14.01,2013-02-11 21:09:00,
2013-02-11 16:14:00,35.3,28.2,29.65,WSW,258,14.9,25.3,75,0.00,OVC,,0.09,21.0,WeatherDisplay:10.37,2013-02-11 21:14:00,
2013-02-11 16:19:00,35.3,27.8,29.65,West,259,20.2,29.0,74,0.00,OVC,,0.09,19.0,WeatherDisplay:10.37,2013-02-11 21:19:00,
2013-02-11 16:24:00,35.3,29.5,29.67,West,269,6.0,10.0,79,0.00,,OVC060,0.10,19.00,VWS V14.01,2013-02-11 21:24:00,
2013-02-11 16:29:00,35.3,29.1,29.67,West,261,10.0,10.0,78,0.00,,OVC060,0.10,16.00,VWS V14.01,2013-02-11 21:29:00,
2013-02-11 16:34:00,35.3,27.5,29.66,West,264,19.2,28.8,73,0.00,OVC,,0.09,14.0,WeatherDisplay:10.37,2013-02-11 21:34:00,
2013-02-11 16:39:00,35.3,29.1,29.68,West,269,10.0,10.0,78,0.00,,OVC070,0.10,18.00,VWS V14.01,2013-02-11 21:39:00,
2013-02-11 16:44:00,35.3,29.1,29.68,WNW,290,10.0,11.0,78,0.00,,OVC070,0.10,16.00,VWS V14.01,2013-02-11 21:44:00,
2013-02-11 16:48:00,35.2,29.4,29.68,WSW,255,9.0,15.0,79,0.00,,OVC070,0.10,16.00,VWS V14.01,2013-02-11 21:48:00,
2013-02-11 16:53:00,35.3,27.8,29.67,WSW,256,24.7,34.5,74,0.00,OVC,,0.09,9.0,WeatherDisplay:10.37,2013-02-11 21:53:00,
2013-02-11 16:58:00,35.2,29.4,29.69,West,267,10.0,10.0,79,0.00,,OVC070,0.10,9.00,VWS V14.01,2013-02-11 21:58:00,
2013-02-11 17:03:00,35.3,27.8,29.68,West,263,14.1,26.5,74,0.00,OVC,,0.09,7.0,WeatherDisplay:10.37,2013-02-11 22:03:00,
2013-02-11 17:08:00,35.1,29.6,29.69,WSW,244,12.0,12.0,80,0.00,,OVC070,0.10,5.00,VWS V14.01,2013-02-11 22:08:00,
2013-02-11 17:13:00,35.0,29.5,29.70,WSW,250,7.0,7.0,80,0.00,,OVC070,0.10,5.00,VWS V14.01,2013-02-11 22:13:00,
2013-02-11 17:18:00,35.0,28.2,29.68,WSW,242,13.5,20.7,76,0.00,OVC,,0.09,5.0,WeatherDisplay:10.37,2013-02-11 22:18:00,
2013-02-11 17:23:00,34.9,29.4,29.70,West,262,11.0,12.0,80,0.00,,OVC070,0.10,0.00,VWS V14.01,2013-02-11 22:23:00,
2013-02-11 17:28:00,35.0,28.2,29.68,WSW,243,14.4,26.5,76,0.00,OVC,,0.09,0.0,WeatherDisplay:10.37,2013-02-11 22:28:00,
2013-02-11 17:33:00,34.8,29.6,29.70,SW,226,5.0,9.0,81,0.00,,OVC055,0.10,0.00,VWS V14.01,2013-02-11 22:33:00,
2013-02-11 17:38:00,34.9,27.8,29.68,WSW,251,16.5,29.0,75,0.00,OVC,,0.09,0.0,WeatherDisplay:10.37,2013-02-11 22:38:00,
2013-02-11 17:43:00,34.8,29.0,29.70,WSW,251,7.0,10.0,79,0.00,,OVC055,0.10,0.00,VWS V14.01,2013-02-11 22:43:00,
2013-02-11 17:48:00,34.8,29.0,29.70,West,261,10.0,10.0,79,0.00,,OVC055,0.10,0.00,VWS V14.01,2013-02-11 22:48:00,
2013-02-11 17:53:00,34.8,27.4,29.69,WSW,253,16.9,25.0,74,0.00,OVC,,0.09,0.0,WeatherDisplay:10.37,2013-02-11 22:53:00,
2013-02-11 17:58:00,34.8,28.6,29.71,WSW,248,6.0,12.0,78,0.00,,OVC055,0.10,0.00,VWS V14.01,2013-02-11 22:58:00,
2013-02-11 18:03:00,34.7,28.5,29.71,WSW,248,10.0,11.0,78,0.00,,OVC055,0.10,0.00,VWS V14.01,2013-02-11 23:03:00,
2013-02-11 18:08:00,34.7,28.5,29.71,West,261,7.0,12.0,78,0.00,,OVC055,0.10,0.00,VWS V14.01,2013-02-11 23:08:00,
2013-02-11 18:13:00,34.7,27.3,29.70,West,273,21.7,33.4,74,0.00,OVC,,0.09,0.0,WeatherDisplay:10.37,2013-02-11 23:13:00,
2013-02-11 18:18:00,34.6,28.8,29.72,WSW,240,9.0,10.0,79,0.00,,OVC055,0.10,0.00,VWS V14.01,2013-02-11 23:18:00,
2013-02-11 18:23:00,34.4,27.0,29.70,SW,230,15.5,26.5,74,0.00,-SN,OVC,0.09,0.0,WeatherDisplay:10.37,2013-02-11 23:23:00,
2013-02-11 18:28:00,34.3,28.5,29.72,West,275,8.0,9.0,79,0.00,,OVC055,0.10,0.00,VWS V14.01,2013-02-11 23:28:00,
2013-02-11 18:33:00,34.3,26.9,29.70,SW,234,16.9,26.5,74,0.00,-SN,OVC,0.09,0.0,WeatherDisplay:10.37,2013-02-11 23:33:00,
2013-02-11 18:38:00,34.4,28.3,29.72,SW,236,7.0,12.0,78,0.00,,OVC055,0.10,0.00,VWS V14.01,2013-02-11 23:38:00,
2013-02-11 18:43:00,34.5,26.7,29.71,WSW,240,17.5,25.0,73,0.00,-SN,OVC,0.09,0.0,WeatherDisplay:10.37,2013-02-11 23:43:00,
2013-02-11 18:48:00,34.5,28.4,29.72,WSW,246,9.0,9.0,78,0.00,,,0.10,0.00,VWS V14.01,2013-02-11 23:48:00,
2013-02-11 18:53:00,34.6,28.5,29.73,WSW,240,5.0,8.0,78,0.00,,,0.10,0.00,VWS V14.01,2013-02-11 23:53:00,
2013-02-11 18:58:00,34.6,28.5,29.72,SW,219,9.0,12.0,78,0.00,,,0.10,0.00,VWS V14.01,2013-02-11 23:58:00,
2013-02-11 19:03:00,34.6,28.1,29.73,WSW,244,6.0,7.0,77,0.00,,,0.10,0.00,VWS V14.01,2013-02-12 00:03:00,
2013-02-11 19:08:00,34.7,26.9,29.71,WSW,244,20.4,27.0,73,0.00,-SN,OVC,0.09,0.0,WeatherDisplay:10.37,2013-02-12 00:08:00,
2013-02-11 19:13:00,34.7,26.9,29.70,WSW,250,17.0,32.2,73,0.00,-SN,OVC,0.09,0.0,WeatherDisplay:10.37,2013-02-12 00:13:00,
2013-02-11 19:18:00,34.6,28.5,29.73,WSW,248,9.0,15.0,78,0.00,,,0.10,0.00,VWS V14.01,2013-02-12 00:18:00,
2013-02-11 19:23:00,34.8,26.7,29.71,WSW,244,13.5,36.8,72,0.00,-SN,OVC,0.09,0.0,WeatherDisplay:10.37,2013-02-12 00:23:00,
2013-02-11 19:28:00,34.7,28.2,29.73,West,265,8.0,11.0,77,0.00,,,0.10,0.00,VWS V14.01,2013-02-12 00:28:00,
2013-02-11 19:33:00,34.9,26.8,29.71,WSW,245,16.8,23.0,72,0.00,-SN,OVC,0.09,0.0,WeatherDisplay:10.37,2013-02-12 00:33:00,
2013-02-11 19:38:00,34.9,26.8,29.71,SW,224,23.0,32.2,72,0.00,-SN,OVC,0.09,0.0,WeatherDisplay:10.37,2013-02-12 00:38:00,
2013-02-11 19:43:00,34.9,28.4,29.74,WSW,258,8.0,8.0,77,0.00,,,0.10,0.00,VWS V14.01,2013-02-12 00:43:00,
2013-02-11 19:48:00,35.0,26.5,29.72,SW,236,18.8,31.1,71,0.00,-SN,OVC,0.09,0.0,WeatherDisplay:10.37,2013-02-12 00:48:00,
2013-02-11 19:53:00,34.8,28.3,29.74,West,268,13.0,13.0,77,0.00,,,0.10,0.00,VWS V14.01,2013-02-12 00:53:00,
2013-02-11 19:58:00,34.9,28.1,29.74,SW,236,9.0,12.0,76,0.00,,,0.10,0.00,VWS V14.01,2013-02-12 00:58:00,
2013-02-11 20:03:00,34.9,28.4,29.74,West,265,4.0,4.0,77,0.00,,,0.10,0.00,VWS V14.01,2013-02-12 01:03:00,
2013-02-11 20:08:00,35.0,26.5,29.72,WSW,248,20.8,28.0,71,0.00,-SN,OVC,0.09,0.0,WeatherDisplay:10.37,2013-02-12 01:08:00,
2013-02-11 20:13:00,34.9,28.4,29.74,WSW,253,8.0,8.0,77,0.00,,,0.10,0.00,VWS V14.01,2013-02-12 01:13:00,
2013-02-11 20:18:00,35.0,26.9,29.72,WSW,238,23.5,40.0,72,0.00,-SN,OVC,0.09,0.0,WeatherDisplay:10.37,2013-02-12 01:18:00,
2013-02-11 20:23:00,34.9,28.4,29.74,SW,234,7.0,7.0,77,0.00,,,0.10,0.00,VWS V14.01,2013-02-12 01:23:00,
2013-02-11 20:28:00,35.0,26.9,29.72,West,259,14.4,26.5,72,0.00,-SN,OVC,0.09,0.0,WeatherDisplay:10.37,2013-02-12 01:28:00,
2013-02-11 20:33:00,35.0,26.9,29.73,West,268,17.1,34.5,72,0.00,-SN,OVC,0.09,0.0,WeatherDisplay:10.37,2013-02-12 01:33:00,
2013-02-11 20:38:00,34.8,28.3,29.74,West,268,8.0,8.0,77,0.00,,,0.10,0.00,VWS V14.01,2013-02-12 01:38:00,
2013-02-11 20:43:00,34.9,26.8,29.73,SW,236,21.2,35.0,72,0.00,-SN,OVC,0.09,0.0,WeatherDisplay:10.37,2013-02-12 01:43:00,
2013-02-11 20:48:00,34.8,28.3,29.74,West,265,10.0,10.0,77,0.00,,,0.10,0.00,VWS V14.01,2013-02-12 01:48:00,
2013-02-11 20:53:00,34.8,27.0,29.72,WSW,243,18.1,35.0,73,0.00,-SN,OVC,0.09,0.0,WeatherDisplay:10.37,2013-02-12 01:53:00,
2013-02-11 20:58:00,34.7,28.5,29.74,West,262,9.0,10.0,78,0.00,,,0.10,0.00,VWS V14.01,2013-02-12 01:58:00,
2013-02-11 21:03:00,34.7,28.5,29.74,WSW,250,7.0,7.0,78,0.00,,,0.10,0.00,VWS V14.01,2013-02-12 02:03:00,
2013-02-11 21:08:00,34.6,28.8,29.74,West,272,7.0,7.0,79,0.00,,,0.10,0.00,VWS V14.01,2013-02-12 02:08:00,
2013-02-11 21:13:00,34.6,27.2,29.72,WSW,244,18.6,31.1,74,0.00,-SN,OVC,0.09,0.0,WeatherDisplay:10.37,2013-02-12 02:13:00,
2013-02-11 21:18:00,34.5,28.7,29.74,WSW,254,6.0,6.0,79,0.00,,,0.10,0.00,VWS V14.01,2013-02-12 02:18:00,
2013-02-11 21:23:00,34.6,27.5,29.73,WSW,249,22.9,47.2,75,0.00,OVC,,0.09,0.0,WeatherDisplay:10.37,2013-02-12 02:23:00,
2013-02-11 21:28:00,34.6,28.8,29.74,West,273,8.0,10.0,79,0.00,,,0.10,0.00,VWS V14.01,2013-02-12 02:28:00,
2013-02-11 21:33:00,34.6,28.8,29.74,West,267,6.0,8.0,79,0.00,,OVC024,0.10,0.00,VWS V14.01,2013-02-12 02:33:00,
2013-02-11 21:38:00,34.6,28.8,29.74,WSW,251,6.0,11.0,79,0.00,,OVC024,0.10,0.00,VWS V14.01,2013-02-12 02:38:00,
2013-02-11 21:43:00,34.5,28.7,29.73,West,277,9.0,13.0,79,0.00,,OVC024,0.10,0.00,VWS V14.01,2013-02-12 02:43:00,
2013-02-11 21:48:00,34.4,28.9,29.73,SSW,211,6.0,15.0,80,0.00,,OVC024,0.10,0.00,VWS V14.01,2013-02-12 02:48:00,
2013-02-11 21:53:00,34.4,27.3,29.71,WSW,254,15.1,23.0,75,0.00,OVC,,0.09,0.0,WeatherDisplay:10.37,2013-02-12 02:53:00,
2013-02-11 21:58:00,34.3,28.8,29.73,WSW,251,8.0,10.0,80,0.00,,OVC024,0.10,0.00,VWS V14.01,2013-02-12 02:58:00,
2013-02-11 22:03:00,34.3,27.2,29.72,WSW,245,15.7,21.0,75,0.00,OVC,,0.09,0.0,WeatherDisplay:10.37,2013-02-12 03:03:00,
2013-02-11 22:08:00,34.2,29.0,29.73,SW,231,4.0,4.0,81,0.00,,OVC024,0.10,0.00,VWS V14.01,2013-02-12 03:08:00,
2013-02-11 22:13:00,34.2,27.4,29.72,West,263,22.0,31.0,76,0.00,OVC,,0.09,0.0,WeatherDisplay:10.37,2013-02-12 03:13:00,
2013-02-11 22:18:00,34.2,27.4,29.71,SW,236,20.3,28.0,76,0.00,OVC,,0.09,0.0,WeatherDisplay:10.37,2013-02-12 03:18:00,
2013-02-11 22:23:00,34.2,29.0,29.73,SSW,194,6.0,14.0,81,0.00,,OVC024,0.10,0.00,VWS V14.01,2013-02-12 03:23:00,
2013-02-11 22:28:00,34.1,28.9,29.72,WSW,254,7.0,10.0,81,0.00,,OVC024,0.10,0.00,VWS V14.01,2013-02-12 03:28:00,
2013-02-11 22:33:00,34.1,28.9,29.73,WSW,254,7.0,12.0,81,0.00,,,0.10,0.00,VWS V14.01,2013-02-12 03:33:00,
2013-02-11 22:38:00,34.1,27.3,29.71,SSW,209,20.3,29.0,76,0.00,-SN,OVC,0.09,0.0,WeatherDisplay:10.37,2013-02-12 03:38:00,
2013-02-11 22:43:00,34.1,28.9,29.72,West,259,8.0,11.0,81,0.00,,,0.10,0.00,VWS V14.01,2013-02-12 03:43:00,
2013-02-11 22:48:00,34.1,27.3,29.71,WSW,247,24.0,35.7,76,0.00,-SN,OVC,0.09,0.0,WeatherDisplay:10.37,2013-02-12 03:48:00,
2013-02-11 22:53:00,34.1,28.9,29.73,West,265,10.0,12.0,81,0.00,,,0.10,0.00,VWS V14.01,2013-02-12 03:53:00,
2013-02-11 22:58:00,34.0,27.5,29.71,SW,225,16.7,26.5,77,0.00,-SN,OVC,0.09,0.0,WeatherDisplay:10.37,2013-02-12 03:58:00,
2013-02-11 23:03:00,34.0,29.1,29.73,SW,226,8.0,14.0,82,0.00,,,0.10,0.00,VWS V14.01,2013-02-12 04:03:00,
2013-02-11 23:08:00,33.8,29.5,29.73,SW,234,9.0,14.0,84,0.00,,,0.10,0.00,VWS V14.01,2013-02-12 04:08:00,
2013-02-11 23:13:00,33.5,29.5,29.73,West,275,7.0,11.0,85,0.00,,,0.10,0.00,VWS V14.01,2013-02-12 04:13:00,
2013-02-11 23:18:00,33.3,29.6,29.73,WSW,245,7.0,10.0,86,0.00,,,0.10,0.00,VWS V14.01,2013-02-12 04:18:00,
2013-02-11 23:23:00,33.1,28.2,29.71,WSW,244,18.2,28.0,82,0.00,-SN,OVC,0.09,0.0,WeatherDisplay:10.37,2013-02-12 04:23:00,
2013-02-11 23:28:00,33.1,29.4,29.73,West,259,8.0,13.0,86,0.00,,,0.10,0.00,VWS V14.01,2013-02-12 04:28:00,
2013-02-11 23:33:00,33.1,29.4,29.73,WSW,249,6.0,17.0,86,0.00,,,0.10,0.00,VWS V14.01,2013-02-12 04:33:00,
2013-02-11 23:38:00,32.9,28.0,29.72,SW,228,12.1,28.0,82,0.00,-SN,OVC,0.09,0.0,WeatherDisplay:10.37,2013-02-12 04:38:00,
2013-02-11 23:43:00,32.9,29.5,29.74,West,270,7.0,12.0,87,0.00,,,0.10,0.00,VWS V14.01,2013-02-12 04:43:00,
2013-02-11 23:48:00,32.7,28.1,29.72,West,260,19.3,34.5,83,0.00,-SN,OVC,0.09,0.0,WeatherDisplay:10.37,2013-02-12 04:48:00,
2013-02-11 23:53:00,32.7,29.5,29.74,West,259,6.0,12.0,88,0.00,,,0.10,0.00,VWS V14.01,2013-02-12 04:53:00,
2013-02-11 23:58:00,32.6,29.7,29.74,WSW,253,4.0,9.0,89,0.00,,,0.10,0.00,VWS V14.01,2013-02-12 04:58:00,